Location: Castelbiague
(43.0361°N, 0.9246°E)
Time: 14:58:36
(UTC+00:00)

Cosmos 1354 Rocket - Pass Details

Date: 17 June 2021
Orbit: 764 x 783 km, 74.0° (Epoch: 31 July)

Event Time Altitude Azimuth Distance (km) Brightness Sun altitude
Rises 23:30:55 0° 337° (NNW) 3,280 8.5 -23.3°
Reaches altitude 10° 23:33:20 10° 335° (NNW) 2,349 7.5 -23.3°
Maximum altitude 23:38:37 68° 253° (WSW) 844 4.1 -23.4°
Enters shadow 23:39:27 58° 204° (SSW) 912 4.0 -23.4°
